Meteo Giornale » Osservazioni meteo Slovacchia » Bratislava Ivanka

ore: 18:30 - Osservazioni Meteo Bratislava Ivanka
Lat. 48° 12' N Lon. 17° 12' E Alt. 133 metri s.l.m.

sereno

26 °C

Sereno

Temp. 24 Ore

18 °C

27 °C

Ovest/Nord-Ovest

11.1 Km/h

Dew point 9 °C

Umidità 34 %

Visibilità  10 Km

Il sole sorge alle ore 06:08

Il sole tramonta alle ore 19:33

Data e Ora Cielo e Fenomeni T °C DP °C Um. % Pres. hPa Vis. km Vento km/h
Oggi h: 18:30 sereno Sereno 26 9 34 1019 10 O/NO 11.1
Oggi h: 18:00 sereno Sereno 26 9 34 1019 10 O 14.8
Oggi h: 17:30 sereno Sereno 27 9 32 1019 10 O 13
Oggi h: 17:00 sereno Sereno 27 9 32 1019 10 O 18.5
Oggi h: 16:30 sereno Sereno 27 9 32 1019 10 O/NO 20.3
Oggi h: 16:00 sereno Sereno 27 10 34 1019 10 O/NO 24
Oggi h: 15:30 sereno Sereno 27 10 34 1019 10 O 20.3
Oggi h: 15:00 sereno Sereno 26 10 36 1019 10 O 14.8
Oggi h: 14:30 sereno Sereno 27 10 34 1019 10 NO 18.5
Oggi h: 14:00 sereno Sereno 26 11 39 1020 10 O/NO 14.8
Oggi h: 13:30 sereno Sereno 26 12 41 1020 10 N 20.3
Oggi h: 13:00 sereno Sereno 26 11 39 1020 10 O 25.9
Oggi h: 12:30 sereno Sereno 25 11 41 1020 10 O/NO 20.3
Oggi h: 12:00 sereno Sereno 24 12 47 1020 10 O/NO 18.5
Oggi h: 11:30 nuvoloso Nuvoloso 24 12 47 1020 10 O/NO 14.8
Oggi h: 11:00 nuvoloso Nuvoloso 23 12 49 1020 10 O/NO 18.5
Oggi h: 10:30 poco_nuvoloso Poco Nuvoloso 23 13 53 1020 10 O 16.7
Oggi h: 10:00 poco_nuvoloso Poco Nuvoloso 22 13 56 1020 10 O 20.3
Oggi h: 09:30 poco_nuvoloso Poco Nuvoloso 21 13 60 1020 10 O 20.3
Oggi h: 09:00 poco_nuvoloso Poco Nuvoloso 21 14 64 1020 10 O 20.3
Oggi h: 08:30 sereno Sereno 20 14 68 1020 10 O/NO 14.8
Oggi h: 08:00 sereno Sereno 19 14 72 1020 10 O/NO 18.5
Oggi h: 07:30 poco_nuvoloso Poco Nuvoloso 19 14 72 1019 10 O 14.8
Oggi h: 07:00 poco_nuvoloso Poco Nuvoloso 18 15 82 1019 10 O 18.5
Oggi h: 06:30 sereno Sereno 18 15 82 1019 10 O 14.8
Oggi h: 06:00 sereno Sereno 18 15 82 1018 10 O/NO 22.2
Oggi h: 05:30 sereno Sereno 18 15 82 1018 10 O/NO 22.2
Oggi h: 05:00 sereno Sereno 18 15 82 1018 10 O/NO 16.7
Oggi h: 04:30 sereno Sereno 18 14 77 1018 10 O 18.5
Oggi h: 04:00 sereno Sereno 18 14 77 1018 10 N 3.7
Oggi h: 03:30 sereno Sereno 18 16 88 1018 10 N 3.7
Oggi h: 03:00 sereno Sereno 18 16 88 1018 10 N 3.7
Oggi h: 02:30 sereno Sereno 19 15 77 1018 10 O/NO 13
Oggi h: 02:00 sereno Sereno 19 16 82 1018 10 SO 9.3
Oggi h: 01:30 coperto_pioggia Pioggia 20 16 77 1018 10 O/SO 18.5
Oggi h: 01:00 coperto_pioggia Pioggia 20 15 72 1018 10 O/NO 18.5
Oggi h: 00:30 coperto_pioggia Pioggia 20 16 77 1018 10 O/NO 18.5
Oggi h: 00:00 coperto_pioggia Pioggia 22 14 60 1019 10 O/NO 16.7
Ieri h: 23:30 coperto_pioggia Pioggia 24 13 50 1018 10 O/SO 20.3
Ieri h: 23:00 sereno Sereno 25 12 44 1017 10 O/SO 14.8
Ieri h: 22:30 sereno Sereno 23 13 53 1016 10 S/SO 7.4
Ieri h: 22:00 sereno Sereno 24 13 50 1015 10 N 5.5
Ieri h: 21:30 sereno Sereno 24 13 50 1015 10 N 5.5
Ieri h: 21:00 sereno Sereno 25 13 47 1014 10 NO 7.4
Ieri h: 20:30 sereno Sereno 26 12 41 1014 10 O/NO 7.4
Ieri h: 20:00 sereno Sereno 26 11 39 1014 10 NO 11.1